Location: Newark
(43.0000°N, 1.6781°W)
Time: 10:30:27
(UTC+00:00)

Explorer 7 - Pass Details

Date: 25 April 2021
Orbit: 484 x 677 km, 50.3° (Epoch: 07 May)

Event Time Altitude Azimuth Distance (km) Brightness Sun altitude
Rises 01:52:48 0° 284° (WNW) 2,858 - -28.6°
Reaches altitude 10° 01:56:18 10° 256° (WSW) 1,995 - -28.2°
Maximum altitude 01:58:15 13° 230° (SW) 1,846 - -28.1°
Drops below altitude 10° 02:00:15 10° 205° (SSW) 2,034 - -27.9°
Sets 02:03:54 0° 177° (S) 2,973 - -27.5°
